Погода в Георгиевске

Погода в Георгиевске : погода сейчас, прогноз погоды и архив. Всё, что Вы хотите узнать о погоде в Георгиевске!

Поиск расширенной информации на нашем сайте:

Другие новости

Новости СМИ2

Главная страница сайта

Новости сайта

03.07.2017

Напоминаем, что на нашем специализированном сайте Метеоцентр.Азия вы можете получить высокодетализированные автоматические прогнозы погоды по пунктам России, СНГ и мира в авиационном формате (включающие направление и скорость ветра, видимость, явления погоды, количество и форму облачности, нижнюю и верхнюю границу облачности).


Погода в Георгиевске - сегодня

Время (UTC), дата Ветер
(°,м/с) 
Видим.   Явления Облачность Т
(°С)
Тd
(°С)
f(%) Тe
(°С)
Pmin
(гПа)
dP
(гПа)
Po
(мм)
O2
(г/м3)
Тmin Tmax R s Состояние
почвы
12 14.06.18 130 (ЮВ) 20000 м    ясно 
+31.2 +9.9 27 +33  1005.6  -1  730  262           
15 14.06.18 110 (В) 20000 м    ясно 
+30.2 +10 29 +32  1005.4  -0.3  730  263    +31.4       
18 14.06.18 тихо ()   20000 м    ясно 
+21.9 +15.1 65 +31  1006.7  0.4  730  269           
21 14.06.18 тихо ()   20000 м    ясно 
+18.8 +14 74 +26  1006.8  -0.2  730  272           
00 15.06.18 тихо ()   20000 м    ясно 
+16.7 +14.1 85 +25  1007  0.1  730  274           
06 15.06.18 тихо ()   20000 м    ясно 
+25.3 +15.4 54 +35  1006.3  0.1  730  266           
09 15.06.18 тихо ()   20000 м    3/0 средняя 
[Ac trans]
+30.5 +11.7 31 +35  1005  -0.7  729  262           
12 15.06.18 100 (В) 20000 м    8/0 верхняя 
[Cs]
+32.4 +13 31 +38  1003.8  -1  729  260           
18 15.06.18 270 (З) 20000 м    6/0 средняя 
[Ac trans]
+24.6 +15.8 58 +35  1006.1  730  266           
21 15.06.18 тихо ()   20000 м    3/0 средняя 
[Ac trans]
+21.8 +15.5 67 +32  1006.1  -0.4  729  269           
00 16.06.18 тихо ()   20000 м    ясно 
+20 +15.1 73 +30  1006.6  0.3  730  271           
06 16.06.18 тихо ()   20000 м    8/0 средняя 
[Ac trans]
+24.6 +16.1 59 +36  1007.6  0.9  731  267           
09 16.06.18 тихо ()   20000 м    8/0 средняя 
[Ac trans]
+28.3 +15.6 46 +39  1006.7  -0.5  730  263           
12 16.06.18 тихо ()   20000 м    3/3 600 м верхняя 
[Cu med, cong|Ci]
+31.7 +11.4 29 +35  1005  -1.3  729  261           
18 16.06.18 140 (ЮВ) 20000 м  в посл. час гроза  8/8 600 м кучево-дожд. 
[Cb cap]
+23.2 +15.2 61 +33  1007.9  1.5  731  268           
21 16.06.18 тихо ()   20000 м    3/0 средняя 
[Ac trans]
+20.8 +14.4 67 +29  1007.6  -0.5  731  271           
00 17.06.18 210 (ЮЗ) 20000 м    10/10 1000 м 
[Sc]
+20.7 +15.3 71 +31  1008.2  0.5  731  270           
03 17.06.18 290 (З) 20000 м  в посл. час ливневой дождь  10/10 600 м кучево-дожд. 
[Cb cap]
+19.1 +16.3 84 +33  1009.1  0.7  731  272  +19.1        влажная 
09 17.06.18 тихо ()   20000 м  {ливн. осадки}  10/8 1000 м кучево-дожд., средняя 
[Cb cap|Ac und]
+20.4 +13.3 64 +27  1009.8  0.4  732  272           
18 17.06.18 тихо ()   4000 м  слаб. ливневой дождь  10/10 1000 м кучево-дожд. 
[Cb cap]
+16.7 +15.9 95 +28  1010.8  732  275           
21 17.06.18 130 (ЮВ) 20000 м  {ливн. осадки}  10/10 600 м 
[Sc]
+16.3 +15.7 96 +29  1010.3  -0.5  732  275           
03 18.06.18 тихо ()   20000 м  {ливн. осадки}  10/5 1000 м средняя, верхняя 
[Sc|Ac trans|Ci fib]
+15.9 +15.2 96 +26  1009.8  0.2  732  275  +15.7      влажная 
06 18.06.18 070 (В) 20000 м  {ливн. осадки}  10/8 1000 м кучево-дожд., средняя 
[Cb cap|Ac und]
+18.7 +15.6 82 +30  1009.7  0.3  732  273           
09 18.06.18 тихо ()   20000 м    10/8 600 м кучево-дожд., средняя 
[Cb cap|Ac und]
+19.9 +14.2 70 +28  1009.7  0.1  732  272           
12 18.06.18 тихо ()   20000 м    10/10 1000 м 
[Sc]
+21.8 +14.7 64 +31  1009.4  0.1  732  270           
Время (UTC), дата Ветер
(°,м/с) 
Видим.   Явления Облачность Т
(°С)
Тd
(°С)
f(%) Тe
(°С)
Pmin
(гПа)
dP
(гПа)
Po
(мм)
O2
(г/м3)
Тmin Tmax R s Состояние
почвы

Для получения пояснительной информации подведите курсор к названию столбца.

ПОГОДА в Георгиевске - архив

Всё, что Вы хотите узнать о погоде в Георгиевске - удобно и подробно!

Выберите нужную дату (начиная с 1 января 2015* года) и нажмите кнопку "Найти".
Будут отображены архивные сводки погоды по пункту Георгиевск, начиная с указанной даты.


Отображать данные в формате CSV (для использования в таблицах Excel)


Внимание! Наш архив погоды предназначен исключительно для личного некоммерческого использования в познавательных целях. Если Вам необходимы официальные справки о состоянии погоды (для производственных, юридических, коммерческих и т.п. целей), обращайтесь в органы Росгидромета.

*Примечание: данная дата относится к архиву по метеостанциям СССР (Россия, СНГ, Балтия).
Архив по метеостанциям Зарубежной Европы и Азии (кроме Китая) хранится 10 дней, по другим регионам земного шара (Китай, Африка, Америка, Австралия, Океания) - 1 день.

Георгиевск - район местоположения метеостанции


Название, широта, долгота, высота метеостанции:
Георгиевск 44.2°ш. 43.5°д. 302 м над ур. моря [Российская Федерация]

Дополнительная информация

В oтличие oт бoльшинства пoгoдных сайтoв мы публикуем пoдрoбную метеoинфoрмацию в детальнoм прoфессиoнальнoм фoрмате.

Характеристики температуры и влажнoсти вoздуха измеряются на высoте 2 м в тени вдали oт зданий и деревьев.
Скoрoсть ветра измеряется на высoте 10 м (на урoвне рoста челoвека скoрoсть ветра ниже в 1.5-2 раза). Если метеoстанция нахoдится в гoрoде или в лесу, тo скoрoсть ветра занижена на 2-4 м/с пo сравнению с oткрытым местoм. Скoрoсть ветра над акватoриями крупных рек и oзёр, а также на вершинах хoлмoв на 2-5 м/с выше, чем в oбычных услoвиях.
Атмoсфернoе давление в разных тoчках местнoсти мoжет значительнo oтличаться oт давления на метеoстанции, в зависимoсти oт услoвий рельефа (при пoдъёме на 10 м давление пoнижается примернo на 1 мм рт.ст.).